DateTimeUTC,F1_A11,F1_S11,BsB_S11,BsG_S11,BsR_S11,BbsB_S11,BbsG_S11,BbsR_S11,BaB_A11,BaG_A11,BaR_A11,Tu_S11,T_S11,Uu_S11,U_S11,P_S11,T1_A11
2021-07-03T07:00:00Z,00000200,21000000,,,,,,,0000.04,-000.07,0000.12,18.5,25.4,01.2,00.8,0673.5,31.1
2021-07-03T07:01:00Z,00000200,21000000,,,,,,,0000.21,0000.04,-000.21,18.5,25.4,01.2,00.8,0673.5,31.1
2021-07-03T07:02:00Z,00000200,21000000,,,,,,,-000.04,-000.08,0000.07,18.4,25.4,01.2,00.8,0673.5,31.1
2021-07-03T07:03:00Z,00000200,61000000,,,,,,,0000.12,0000.27,0000.09,18.4,25.4,01.2,00.8,0673.5,31.1
2021-07-03T07:04:00Z,00000200,41000000,-000.10,0000.43,-000.01,0000.23,-000.01,-000.18,0000.16,-000.24,0000.10,18.4,25.1,01.4,00.9,0674.4,31.1
2021-07-03T07:05:00Z,00000200,01000000,0000.36,0000.31,0000.30,-000.08,0000.04,0000.14,0000.20,0000.45,0000.38,18.4,25.0,01.5,01.0,0674.5,31.0
2021-07-03T07:06:00Z,00000200,01000000,0000.61,0000.49,0000.12,0000.04,0000.02,0000.09,-000.33,-000.41,-000.46,18.3,25.0,01.5,01.0,0674.5,31.0
2021-07-03T07:07:00Z,00000200,01000000,0000.84,0000.35,-000.06,-000.15,0000.11,-000.03,0000.34,0000.32,0000.40,18.3,24.9,01.5,01.0,0674.4,31.1
2021-07-03T07:08:00Z,00000200,01000000,0000.01,0000.49,-000.03,0000.23,0000.23,0000.10,0000.24,0000.14,0000.18,18.3,24.9,01.5,01.0,0674.5,31.1
2021-07-03T07:09:00Z,00000200,01000000,-000.04,0000.39,0000.26,0000.38,0000.04,0000.01,0000.21,0000.53,0000.10,18.4,24.9,01.5,01.0,0674.5,31.1
2021-07-03T07:10:00Z,00000200,01000000,-000.18,0000.07,-000.13,-000.05,-000.01,-000.37,-000.04,0000.02,0000.12,18.5,24.9,01.5,01.0,0674.5,31.1
2021-07-03T07:11:00Z,00000200,01000000,-000.02,0000.32,-000.04,0000.07,-000.17,-000.27,0000.34,0000.35,0000.20,18.6,25.0,01.7,01.1,0674.5,31.1
2021-07-03T07:12:00Z,00000200,01000000,0000.69,0000.20,-000.07,-000.21,0000.14,-000.06,0000.23,-000.24,0000.31,18.6,25.0,01.7,01.2,0674.5,31.2
2021-07-03T07:13:00Z,00000200,01000000,-000.38,0000.51,-000.10,-000.18,0000.27,-000.07,-000.24,0000.40,0000.14,18.7,25.1,01.7,01.2,0674.5,31.1
2021-07-03T07:14:00Z,00000200,01000000,0000.61,0000.46,-000.07,-000.37,-000.02,-000.31,0000.44,0000.11,0000.01,18.7,25.1,01.7,01.1,0674.5,31.1
2021-07-03T07:15:00Z,00000200,01000000,0000.57,0000.36,0000.29,0000.13,-000.06,0000.06,-000.20,-000.09,-000.21,18.7,25.1,01.7,01.1,0674.5,31.2
2021-07-03T07:16:00Z,00000200,01000000,0000.78,0000.07,0000.10,0000.04,0000.13,0000.04,-000.03,-000.05,-000.28,18.7,25.0,01.6,01.1,0674.5,31.1
2021-07-03T07:17:00Z,00000200,01000000,-000.24,0000.37,0000.29,0000.13,0000.12,-000.19,0000.12,-000.03,0000.15,18.6,25.0,01.6,01.1,0674.5,31.1
2021-07-03T07:18:00Z,00000200,01000000,0000.44,0000.37,-000.12,0000.55,0000.16,-000.25,0000.55,0000.22,0000.18,18.6,25.0,01.7,01.1,0674.5,31.1
2021-07-03T07:19:00Z,00000200,01000000,0000.70,0000.61,0000.29,0000.38,-000.20,0000.16,-000.25,0000.26,0000.02,18.5,25.0,01.6,01.1,0674.5,31.1
2021-07-03T07:20:00Z,00000200,01000000,0001.08,0000.33,0000.31,0000.41,0000.21,-000.05,0000.41,0000.13,0000.22,18.5,24.9,01.8,01.2,0674.4,31.0
2021-07-03T07:21:00Z,00000200,01000000,-000.17,0000.59,-000.18,0000.18,-000.10,-000.02,0000.16,0000.11,0000.14,18.4,24.9,01.8,01.2,0674.4,31.1
2021-07-03T07:22:00Z,00000200,01000000,0000.71,0000.53,-000.11,0000.25,0000.09,0000.08,0000.33,0000.18,0000.38,18.4,24.9,02.0,01.3,0674.4,31.0
2021-07-03T07:23:00Z,00000200,01000000,0000.15,0000.18,0000.15,0000.15,0000.13,0000.04,0000.13,0000.10,0000.07,18.4,24.8,02.0,01.4,0674.4,31.1
2021-07-03T07:24:00Z,00000200,01000000,-000.27,0000.44,-000.18,0000.16,0000.19,-000.04,0000.04,0000.22,-000.10,18.5,24.9,02.0,01.3,0674.4,31.1
2021-07-03T07:25:00Z,00000200,01000000,-000.31,0000.47,0000.04,0000.26,0000.17,-000.07,0000.18,0000.09,0000.63,18.5,24.9,02.0,01.3,0674.5,31.1
2021-07-03T07:26:00Z,00000200,00000000,0000.28,0000.45,0000.35,0000.21,-000.11,0000.22,0000.07,0000.34,0000.01,18.6,24.9,01.9,01.3,0674.4,31.1
2021-07-03T07:27:00Z,00000200,01000000,0000.19,0000.43,0000.08,0000.69,0000.09,0000.23,0000.10,0000.04,-000.32,18.7,25.0,01.9,01.3,0674.4,31.1
2021-07-03T07:28:00Z,00000200,01000000,-000.12,0000.48,0000.04,0000.14,0000.15,0000.18,-000.07,0000.06,0000.15,18.8,25.0,01.9,01.3,0674.4,31.2
2021-07-03T07:29:00Z,00000200,01000000,0001.08,0000.47,0000.05,-000.43,-000.34,0000.14,0000.41,-000.00,0000.18,18.8,25.1,01.9,01.3,0674.4,31.2
2021-07-03T07:30:00Z,00000200,01000000,0000.85,0000.59,0000.30,-000.02,0000.35,0000.34,-000.03,0000.36,0000.12,18.8,25.1,02.0,01.4,0674.4,31.2
2021-07-03T07:31:00Z,00000200,00000000,-000.15,0000.47,-000.04,0000.64,-000.18,-000.01,0000.14,-000.02,-000.22,18.7,25.1,02.1,01.5,0674.4,31.1
2021-07-03T07:32:00Z,00000200,00000000,0000.59,0000.44,0000.35,0000.13,0000.20,0000.03,0000.29,-000.04,0000.29,18.7,25.0,02.2,01.5,0674.4,31.1
2021-07-03T07:33:00Z,00000200,00000000,0000.54,0000.19,0000.02,-000.23,0000.11,0000.18,0000.14,-000.07,0000.49,18.6,25.0,02.1,01.4,0674.4,31.1
2021-07-03T07:34:00Z,00000200,00000000,0000.49,0000.73,0000.04,0000.22,-000.11,-000.11,0000.16,0000.44,-000.12,18.6,25.0,02.3,01.6,0674.4,31.1
2021-07-03T07:35:00Z,00000200,00000000,0000.34,0000.30,0000.19,0000.37,0000.21,0000.19,0000.30,0000.28,0000.14,18.5,25.0,02.3,01.5,0674.4,31.1
2021-07-03T07:36:00Z,00000200,00000000,0000.39,0000.09,-000.11,0000.14,-000.19,-000.09,0000.14,0000.18,-000.09,18.5,24.9,02.4,01.7,0674.3,31.1
2021-07-03T07:37:00Z,00000200,00000000,0000.50,0000.38,0000.34,0000.44,-000.01,0000.15,0000.31,-000.15,0000.10,18.5,24.9,02.4,01.6,0674.3,31.1
2021-07-03T07:38:00Z,00000200,00000000,0000.32,0000.05,0000.39,-000.23,0000.29,0000.09,-000.17,0000.39,0000.12,18.5,24.9,02.4,01.6,0674.3,31.1
2021-07-03T07:39:00Z,00000200,00000000,0000.42,0000.53,-000.03,0000.55,0000.01,0000.25,0000.35,-000.02,0000.03,18.5,24.9,02.5,01.7,0674.3,31.1
2021-07-03T07:40:00Z,00000200,00000000,0000.43,0000.55,0000.22,0000.34,-000.07,0000.05,0000.16,-000.00,0000.43,18.5,24.9,02.5,01.7,0674.3,31.1
2021-07-03T07:41:00Z,00000200,00000000,0000.87,0000.41,0000.32,-000.55,0000.05,0000.01,0000.04,0000.14,-000.26,18.5,24.9,02.5,01.7,0674.3,31.1
2021-07-03T07:42:00Z,00000200,00000000,0000.30,0000.46,0000.09,0000.08,-000.28,-000.18,-000.19,0000.11,0000.18,18.5,24.9,02.4,01.6,0674.3,31.1
2021-07-03T07:43:00Z,00000200,00000000,0000.38,0000.76,0000.17,-000.40,0000.15,-000.23,0000.17,0000.06,-000.22,18.5,24.9,02.5,01.7,0674.3,31.1
2021-07-03T07:44:00Z,00000200,00000000,0000.64,0000.10,0000.03,-000.35,-000.03,0000.03,0000.00,0000.17,0000.03,18.4,24.8,02.5,01.7,0674.3,31.1
2021-07-03T07:45:00Z,00000200,00000000,-000.58,0000.51,0000.16,-000.11,0000.05,-000.13,0000.16,-000.07,0000.37,18.4,24.8,02.5,01.7,0674.3,31.0
2021-07-03T07:46:00Z,00000200,00000000,0000.36,0000.58,0000.00,0000.50,0000.04,0000.14,0000.24,0000.28,-000.19,18.3,24.8,02.4,01.7,0674.3,31.0
2021-07-03T07:47:00Z,00000200,00000000,-000.08,0000.25,-000.00,0000.20,-000.26,0000.06,0000.24,0000.12,0000.38,18.3,24.7,02.5,01.7,0674.3,31.0
2021-07-03T07:48:00Z,00000200,00000000,0000.66,0000.01,0000.22,-000.27,-000.05,-000.02,-000.19,0000.09,0000.13,18.2,24.7,02.5,01.7,0674.2,31.0
2021-07-03T07:49:00Z,00000200,00000000,0000.13,0000.30,0000.03,-000.05,0000.24,0000.11,-000.01,-000.37,-000.28,18.2,24.7,02.4,01.6,0674.3,31.0
2021-07-03T07:50:00Z,00000200,00000000,-000.19,0000.64,-000.03,0000.51,0000.23,0000.07,0000.06,0000.07,-000.03,18.2,24.6,02.4,01.6,0674.2,31.0
2021-07-03T07:51:00Z,00000200,00000000,0000.03,0000.55,0000.06,0000.70,0000.03,0000.12,0000.04,0000.13,-000.06,18.1,24.6,02.4,01.6,0674.2,31.0
2021-07-03T07:52:00Z,00000200,00000000,0000.06,0000.65,0000.07,0000.40,0000.17,-000.53,0000.58,0000.18,0000.36,18.1,24.6,02.4,01.6,0674.2,31.0
2021-07-03T07:53:00Z,00000200,00000000,0000.73,0000.20,-000.14,0000.50,0000.08,-000.30,-000.38,-000.36,-000.05,18.1,24.6,02.4,01.6,0674.3,31.0
2021-07-03T07:54:00Z,00000200,00000000,0000.79,0000.62,-000.04,0000.11,0000.02,0000.00,0000.46,0000.53,0000.37,18.1,24.6,02.4,01.6,0674.3,31.0
2021-07-03T07:55:00Z,00000200,00000000,0000.36,0000.35,-000.17,0000.01,-000.01,0000.12,-000.13,0000.05,-000.09,18.2,24.6,02.4,01.6,0674.3,31.1
2021-07-03T07:56:00Z,00000200,00000000,0000.53,0000.33,0000.10,0000.51,-000.14,0000.17,-000.12,0000.24,0000.02,18.3,24.7,02.4,01.6,0674.4,31.1
2021-07-03T07:57:00Z,00000200,40000000,,,,,,,0000.15,-000.15,0000.01,18.4,24.7,02.2,01.5,0674.5,31.1
2021-07-03T07:58:00Z,00000200,60000000,,,,,,,-000.37,-000.26,-000.23,18.2,24.9,02.2,01.4,0673.4,31.1
2021-07-03T07:59:00Z,00000200,20000000,,,,,,,0000.20,0000.44,0000.25,18.2,25.0,02.2,01.4,0673.4,31.1
